Volver al catálogo

THORAD DELTA 1 DEB

ActivoSSO
NORAD 8396·DEBRIS·🇺🇸 United States

Lanzado Nov 15, 1974 desde Vandenberg Space Force Base

Loading…

Próximos Pases (próximas 24 horas)

TLE

ActualizadoSource: Space-Track

Época: Sep 13, 2026, 03:22 UTC

1 08396U 74089BY  26256.14088006 -.00000065  00000-0 -13297-3 0  9990
2 08396 102.1153 332.0216 0063351 278.8006 110.4736 12.42766856353681

Sigue THORAD DELTA 1 DEB en tiempo real con AllMySat

Download on the App Store